Terminal Aerodrome Forecast
Issued by NWS Sioux Falls, SD

Home | Current Version | Previous Version | Graphics & Text | Print | Product List | Glossary Off
Versions: 1 2 3 4 5 6 7 8 9 10 11 12 13 14 15 16 17 18 19 20 21 22 23 24 25 26 27 28 29 30 31 32 33 34 35 36 37 38 39 40 41 42 43 44 45 46 47 48 49 50

000
FTUS43 KFSD 251740
TAFSUX
TAF
KSUX 251740Z 2518/2618 19011KT P6SM SCT030
     FM251930 19011KT P6SM BKN035
      TEMPO 2522/2602 5SM TSRA OVC025CB
     FM260300 07005KT P6SM SCT035 BKN080
     FM260800 10005KT 4SM BR OVC015
     FM261100 07005KT 2SM BR OVC006
     FM261400 02009KT 5SM -SHRA BR OVC025=

USA.gov is the U.S. government's official web portal to all federal, state and local government web resources and services.